Location: Lancaster
(54.0470°N, 2.8020°W)
Time: 08:56:53
(UTC+00:00)

COSMOS 2428 - Visible Passes

Search period start: 06 March 2015 00:00
Search period end: 16 March 2015 00:00
Orbit: 846 x 855 km, 71.0° (Epoch: 06 March)

Date Brightness Start Highest point End Pass type
(mag) Time Alt. Az. Time Alt. Az. Time Alt. Az.
06 Mar 5.2 00:05:41 10° NW 00:06:37 15° NW 00:06:37 15° NW visible
06 Mar 4.9 18:38:44 10° NW 18:41:54 15° N 18:45:03 10° NNE visible
06 Mar 4.6 20:24:47 10° NNW 20:28:32 18° NNE 20:30:36 15° NE visible
06 Mar 4.1 22:09:00 10° NNW 22:12:36 33° N 22:12:36 33° N visible
06 Mar 5.1 23:53:20 10° NW 23:54:36 17° NW 23:54:36 17° NW visible
07 Mar 4.9 18:26:22 10° NW 18:29:33 15° N 18:32:42 10° NNE visible
07 Mar 4.6 20:12:25 10° NNW 20:16:10 18° NNE 20:18:35 14° NE visible
07 Mar 3.9 21:56:38 10° NNW 22:00:35 35° N 22:00:35 35° N visible
07 Mar 4.9 23:40:58 10° NW 23:42:35 19° NW 23:42:35 19° NW visible
08 Mar 4.6 20:00:04 10° NNW 20:03:48 18° NNE 20:06:34 13° NE visible
08 Mar 3.7 21:44:16 10° NNW 21:48:34 38° NNE 21:48:34 38° NNE visible
08 Mar 4.8 23:28:36 10° NW 23:30:34 22° NW 23:30:34 22° NW visible
09 Mar 4.6 19:47:42 10° NNW 19:51:26 18° NNE 19:54:34 12° NE visible
09 Mar 3.6 21:31:55 10° NNW 21:36:34 40° NNE 21:36:34 40° NNE visible
09 Mar 4.6 23:16:15 10° NW 23:18:34 24° NW 23:18:34 24° NW visible
10 Mar 4.6 19:35:21 10° NNW 19:39:04 18° NNE 19:42:36 11° ENE visible
10 Mar 3.4 21:19:33 10° NNW 21:24:36 41° NE 21:24:36 41° NE visible
10 Mar 4.4 23:03:53 10° NW 23:06:36 28° NW 23:06:36 28° NW visible
11 Mar 4.6 19:22:59 10° NNW 19:26:43 18° NNE 19:30:29 10° ENE visible
11 Mar 3.3 21:07:12 10° NNW 21:12:34 41° NE 21:12:38 41° NE visible
11 Mar 4.2 22:51:31 10° NW 22:54:38 31° NW 22:54:38 31° NW visible
12 Mar 4.6 19:10:37 10° NNW 19:14:21 18° NNE 19:18:07 10° ENE visible
12 Mar 3.3 20:54:50 10° NNW 21:00:12 41° NE 21:00:41 40° ENE visible
12 Mar 4.0 22:39:10 10° NW 22:42:42 36° WNW 22:42:42 36° WNW visible
13 Mar 4.5 18:58:15 10° NNW 19:01:59 18° NNE 19:05:45 10° ENE visible
13 Mar 3.3 20:42:28 10° NNW 20:47:51 41° NE 20:48:46 38° ENE visible
13 Mar 3.8 22:26:47 10° NW 22:30:46 40° WNW 22:30:46 40° WNW visible
14 Mar 4.5 18:45:54 10° NNW 18:49:37 18° NNE 18:53:23 10° ENE visible
14 Mar 3.3 20:30:07 10° NNW 20:35:29 41° NE 20:36:53 35° ENE visible
14 Mar 3.5 22:14:25 10° NW 22:18:53 45° WNW 22:18:53 45° WNW visible
15 Mar 3.3 20:17:44 10° NNW 20:23:07 41° NE 20:25:00 32° E visible
15 Mar 3.3 22:02:04 10° NW 22:07:01 50° W 22:07:01 50° W visible
